Year,Month,Day,Hour,Minute,Value (Times are PST for insolation in W/m^2)
2012,08,07,00,00,0.00
2012,08,07,00,01,0.00
2012,08,07,00,02,0.00
2012,08,07,00,03,0.00
2012,08,07,00,04,0.00
2012,08,07,00,05,0.00
2012,08,07,00,06,0.00
2012,08,07,00,07,0.00
2012,08,07,00,08,0.00
2012,08,07,00,09,0.00
2012,08,07,00,10,0.00
2012,08,07,00,11,0.00
2012,08,07,00,12,0.00
2012,08,07,00,13,0.00
2012,08,07,00,14,0.00
2012,08,07,00,15,0.00
2012,08,07,00,16,0.00
2012,08,07,00,17,0.00
2012,08,07,00,18,0.00
2012,08,07,00,19,0.00
2012,08,07,00,20,0.00
2012,08,07,00,21,0.00
2012,08,07,00,22,0.00
2012,08,07,00,23,0.00
2012,08,07,00,24,0.00
2012,08,07,00,25,0.00
2012,08,07,00,26,0.00
2012,08,07,00,27,0.00
2012,08,07,00,28,0.00
2012,08,07,00,29,0.00
2012,08,07,00,30,0.00
2012,08,07,00,31,0.00
2012,08,07,00,32,0.00
2012,08,07,00,33,0.00
2012,08,07,00,34,0.00
2012,08,07,00,35,0.00
2012,08,07,00,36,0.00
2012,08,07,00,37,0.00
2012,08,07,00,38,0.00
2012,08,07,00,39,0.00
2012,08,07,00,40,0.00
2012,08,07,00,41,0.00
2012,08,07,00,42,0.00
2012,08,07,00,43,0.00
2012,08,07,00,44,0.00
2012,08,07,00,45,0.00
2012,08,07,00,46,0.00
2012,08,07,00,47,0.00
2012,08,07,00,48,0.00
2012,08,07,00,49,0.00
2012,08,07,00,50,0.00
2012,08,07,00,51,0.00
2012,08,07,00,52,0.00
2012,08,07,00,53,0.00
2012,08,07,00,54,0.00
2012,08,07,00,55,0.00
2012,08,07,00,56,0.00
2012,08,07,00,57,0.00
2012,08,07,00,58,0.00
2012,08,07,00,59,0.00
2012,08,07,01,00,0.00
2012,08,07,01,01,0.00
2012,08,07,01,02,0.00
2012,08,07,01,03,0.00
2012,08,07,01,04,0.00
2012,08,07,01,05,0.00
2012,08,07,01,06,0.00
2012,08,07,01,07,0.00
2012,08,07,01,08,0.00
2012,08,07,01,09,0.00
2012,08,07,01,10,0.00
2012,08,07,01,11,0.00
2012,08,07,01,12,0.00
2012,08,07,01,13,0.00
2012,08,07,01,14,0.00
2012,08,07,01,15,0.00
2012,08,07,01,16,0.00
2012,08,07,01,17,0.00
2012,08,07,01,18,0.00
2012,08,07,01,19,0.00
2012,08,07,01,20,0.00
2012,08,07,01,21,0.00
2012,08,07,01,22,0.00
2012,08,07,01,23,0.00
2012,08,07,01,24,0.00
2012,08,07,01,25,0.00
2012,08,07,01,26,0.00
2012,08,07,01,27,0.00
2012,08,07,01,28,0.00
2012,08,07,01,29,0.00
2012,08,07,01,30,0.00
2012,08,07,01,31,0.00
2012,08,07,01,32,0.00
2012,08,07,01,33,0.00
2012,08,07,01,34,0.00
2012,08,07,01,35,0.00
2012,08,07,01,36,0.00
2012,08,07,01,37,0.00
2012,08,07,01,38,0.00
2012,08,07,01,39,0.00
2012,08,07,01,40,0.00
2012,08,07,01,41,0.00
2012,08,07,01,42,0.00
2012,08,07,01,43,0.00
2012,08,07,01,44,0.00
2012,08,07,01,45,0.00
2012,08,07,01,46,0.00
2012,08,07,01,47,0.00
2012,08,07,01,48,0.00
2012,08,07,01,49,0.00
2012,08,07,01,50,0.00
2012,08,07,01,51,0.00
2012,08,07,01,52,0.00
2012,08,07,01,53,0.00
2012,08,07,01,54,0.00
2012,08,07,01,55,0.00
2012,08,07,01,56,0.00
2012,08,07,01,57,0.00
2012,08,07,01,58,0.00
2012,08,07,01,59,0.00
2012,08,07,02,00,0.00
2012,08,07,02,01,0.00
2012,08,07,02,02,0.00
2012,08,07,02,03,0.00
2012,08,07,02,04,0.00
2012,08,07,02,05,0.00
2012,08,07,02,06,0.00
2012,08,07,02,07,0.00
2012,08,07,02,08,0.00
2012,08,07,02,09,0.00
2012,08,07,02,10,0.00
2012,08,07,02,11,0.00
2012,08,07,02,12,0.00
2012,08,07,02,13,0.00
2012,08,07,02,14,0.00
2012,08,07,02,15,0.00
2012,08,07,02,16,0.00
2012,08,07,02,17,0.00
2012,08,07,02,18,0.00
2012,08,07,02,19,0.00
2012,08,07,02,20,0.00
2012,08,07,02,21,0.00
2012,08,07,02,22,0.00
2012,08,07,02,23,0.00
2012,08,07,02,24,0.00
2012,08,07,02,25,0.00
2012,08,07,02,26,0.00
2012,08,07,02,27,0.00
2012,08,07,02,28,0.00
2012,08,07,02,29,0.00
2012,08,07,02,30,0.00
2012,08,07,02,31,0.00
2012,08,07,02,32,0.00
2012,08,07,02,33,0.00
2012,08,07,02,34,0.00
2012,08,07,02,35,0.00
2012,08,07,02,36,0.00
2012,08,07,02,37,0.00
2012,08,07,02,38,0.00
2012,08,07,02,39,0.00
2012,08,07,02,40,0.00
2012,08,07,02,41,0.00
2012,08,07,02,42,0.00
2012,08,07,02,43,0.00
2012,08,07,02,44,0.00
2012,08,07,02,45,0.00
2012,08,07,02,46,0.00
2012,08,07,02,47,0.00
2012,08,07,02,48,0.00
2012,08,07,02,49,0.00
2012,08,07,02,50,0.00
2012,08,07,02,51,0.00
2012,08,07,02,52,0.00
2012,08,07,02,53,0.00
2012,08,07,02,54,0.00
2012,08,07,02,55,0.00
2012,08,07,02,56,0.00
2012,08,07,02,57,0.00
2012,08,07,02,58,0.00
2012,08,07,02,59,0.00
2012,08,07,03,00,0.00
2012,08,07,03,01,0.00
2012,08,07,03,02,0.00
2012,08,07,03,03,0.00
2012,08,07,03,04,0.00
2012,08,07,03,05,0.00
2012,08,07,03,06,0.00
2012,08,07,03,07,0.00
2012,08,07,03,08,0.00
2012,08,07,03,09,0.00
2012,08,07,03,10,0.00
2012,08,07,03,11,0.00
2012,08,07,03,12,0.00
2012,08,07,03,13,0.00
2012,08,07,03,14,0.00
2012,08,07,03,15,0.00
2012,08,07,03,16,0.00
2012,08,07,03,17,0.00
2012,08,07,03,18,0.00
2012,08,07,03,19,0.00
2012,08,07,03,20,0.00
2012,08,07,03,21,0.00
2012,08,07,03,22,0.00
2012,08,07,03,23,0.00
2012,08,07,03,24,0.00
2012,08,07,03,25,0.00
2012,08,07,03,26,0.00
2012,08,07,03,27,0.00
2012,08,07,03,28,0.00
2012,08,07,03,29,0.00
2012,08,07,03,30,0.00
2012,08,07,03,31,0.00
2012,08,07,03,32,0.00
2012,08,07,03,33,0.00
2012,08,07,03,34,0.00
2012,08,07,03,35,0.00
2012,08,07,03,36,0.00
2012,08,07,03,37,0.00
2012,08,07,03,38,0.00
2012,08,07,03,39,0.00
2012,08,07,03,40,0.00
2012,08,07,03,41,0.00
2012,08,07,03,42,0.00
2012,08,07,03,43,0.00
2012,08,07,03,44,0.00
2012,08,07,03,45,0.00
2012,08,07,03,46,0.00
2012,08,07,03,47,0.00
2012,08,07,03,48,0.00
2012,08,07,03,49,0.00
2012,08,07,03,50,0.00
2012,08,07,03,51,0.00
2012,08,07,03,52,0.00
2012,08,07,03,53,0.00
2012,08,07,03,54,0.00
2012,08,07,03,55,0.00
2012,08,07,03,56,0.00
2012,08,07,03,57,0.00
2012,08,07,03,58,0.00
2012,08,07,03,59,0.00
2012,08,07,04,00,0.00
2012,08,07,04,01,0.00
2012,08,07,04,02,0.00
2012,08,07,04,03,0.00
2012,08,07,04,04,0.00
2012,08,07,04,05,0.00
2012,08,07,04,06,0.00
2012,08,07,04,07,0.00
2012,08,07,04,08,0.00
2012,08,07,04,09,0.00
2012,08,07,04,10,0.00
2012,08,07,04,11,0.00
2012,08,07,04,12,0.00
2012,08,07,04,13,0.00
2012,08,07,04,14,0.00
2012,08,07,04,15,0.00
2012,08,07,04,16,0.00
2012,08,07,04,17,0.00
2012,08,07,04,18,0.00
2012,08,07,04,19,0.00
2012,08,07,04,20,0.00
2012,08,07,04,21,0.00
2012,08,07,04,22,0.00
2012,08,07,04,23,0.00
2012,08,07,04,24,0.00
2012,08,07,04,25,0.00
2012,08,07,04,26,0.00
2012,08,07,04,27,0.00
2012,08,07,04,28,0.00
2012,08,07,04,29,0.00
2012,08,07,04,30,0.00
2012,08,07,04,31,0.00
2012,08,07,04,32,0.00
2012,08,07,04,33,0.00
2012,08,07,04,34,0.00
2012,08,07,04,35,0.00
2012,08,07,04,36,0.00
2012,08,07,04,37,0.00
2012,08,07,04,38,0.00
2012,08,07,04,39,0.00
2012,08,07,04,40,0.00
2012,08,07,04,41,0.00
2012,08,07,04,42,0.00
2012,08,07,04,43,0.00
2012,08,07,04,44,0.00
2012,08,07,04,45,0.00
2012,08,07,04,46,0.00
2012,08,07,04,47,0.00
2012,08,07,04,48,0.00
2012,08,07,04,49,0.00
2012,08,07,04,50,0.00
2012,08,07,04,51,0.00
2012,08,07,04,52,0.00
2012,08,07,04,53,0.00
2012,08,07,04,54,0.00
2012,08,07,04,55,0.00
2012,08,07,04,56,0.00
2012,08,07,04,57,0.00
2012,08,07,04,58,0.00
2012,08,07,04,59,0.00
2012,08,07,05,00,0.00
2012,08,07,05,01,0.00
2012,08,07,05,02,0.00
2012,08,07,05,03,0.00
2012,08,07,05,04,0.00
2012,08,07,05,05,0.00
2012,08,07,05,06,0.00
2012,08,07,05,07,0.00
2012,08,07,05,08,0.00
2012,08,07,05,09,0.00
2012,08,07,05,10,0.00
2012,08,07,05,11,0.00
2012,08,07,05,12,0.00
2012,08,07,05,13,0.00
2012,08,07,05,14,0.00
2012,08,07,05,15,0.00
2012,08,07,05,16,0.00
2012,08,07,05,17,0.00
2012,08,07,05,18,0.00
2012,08,07,05,19,0.00
2012,08,07,05,20,0.00
2012,08,07,05,21,0.00
2012,08,07,05,22,0.00
2012,08,07,05,23,0.00
2012,08,07,05,24,0.00
2012,08,07,05,25,0.00
2012,08,07,05,26,0.00
2012,08,07,05,27,0.00
2012,08,07,05,28,0.00
2012,08,07,05,29,0.00
2012,08,07,05,30,0.00
2012,08,07,05,31,0.00
2012,08,07,05,32,0.00
2012,08,07,05,33,0.00
2012,08,07,05,34,0.00
2012,08,07,05,35,0.00
2012,08,07,05,36,0.00
2012,08,07,05,37,0.00
2012,08,07,05,38,0.00
2012,08,07,05,39,0.00
2012,08,07,05,40,0.00
2012,08,07,05,41,0.00
2012,08,07,05,42,0.00
2012,08,07,05,43,0.00
2012,08,07,05,44,0.00
2012,08,07,05,45,0.00
2012,08,07,05,46,0.00
2012,08,07,05,47,0.00
2012,08,07,05,48,0.00
2012,08,07,05,49,0.00
2012,08,07,05,50,0.00
2012,08,07,05,51,0.00
2012,08,07,05,52,0.00
2012,08,07,05,53,0.00
2012,08,07,05,54,0.00
2012,08,07,05,55,0.00
2012,08,07,05,56,0.00
2012,08,07,05,57,0.00
2012,08,07,05,58,0.00
2012,08,07,05,59,0.00
2012,08,07,06,00,0.00
2012,08,07,06,01,0.00
2012,08,07,06,02,0.00
2012,08,07,06,03,0.00
2012,08,07,06,04,0.00
2012,08,07,06,05,0.00
2012,08,07,06,06,0.00
2012,08,07,06,07,0.00
2012,08,07,06,08,0.00
2012,08,07,06,09,0.00
2012,08,07,06,10,0.00
2012,08,07,06,11,0.00
2012,08,07,06,12,0.00
2012,08,07,06,13,0.00
2012,08,07,06,14,0.00
2012,08,07,06,15,0.00
2012,08,07,06,16,0.00
2012,08,07,06,17,0.00
2012,08,07,06,18,0.00
2012,08,07,06,19,0.00
2012,08,07,06,20,0.00
2012,08,07,06,21,0.00
2012,08,07,06,22,0.00
2012,08,07,06,23,0.00
2012,08,07,06,24,0.00
2012,08,07,06,25,3.10
2012,08,07,06,26,5.00
2012,08,07,06,27,5.00
2012,08,07,06,28,5.00
2012,08,07,06,29,5.00
2012,08,07,06,30,5.00
2012,08,07,06,31,5.00
2012,08,07,06,32,5.00
2012,08,07,06,33,5.00
2012,08,07,06,34,5.00
2012,08,07,06,35,5.80
2012,08,07,06,36,7.00
2012,08,07,06,37,7.00
2012,08,07,06,38,7.00
2012,08,07,06,39,7.20
2012,08,07,06,40,9.00
2012,08,07,06,41,9.00
2012,08,07,06,42,10.00
2012,08,07,06,43,11.00
2012,08,07,06,44,11.00
2012,08,07,06,45,11.10
2012,08,07,06,46,12.00
2012,08,07,06,47,12.80
2012,08,07,06,48,14.00
2012,08,07,06,49,14.00
2012,08,07,06,50,14.00
2012,08,07,06,51,14.00
2012,08,07,06,52,14.00
2012,08,07,06,53,14.00
2012,08,07,06,54,14.00
2012,08,07,06,55,14.00
2012,08,07,06,56,14.00
2012,08,07,06,57,14.00
2012,08,07,06,58,14.00
2012,08,07,06,59,14.00
2012,08,07,07,00,14.00
2012,08,07,07,01,15.40
2012,08,07,07,02,16.10
2012,08,07,07,03,18.20
2012,08,07,07,04,19.00
2012,08,07,07,05,20.00
2012,08,07,07,06,21.00
2012,08,07,07,07,22.50
2012,08,07,07,08,23.20
2012,08,07,07,09,24.60
2012,08,07,07,10,23.00
2012,08,07,07,11,23.00
2012,08,07,07,12,23.00
2012,08,07,07,13,23.00
2012,08,07,07,14,24.90
2012,08,07,07,15,25.20
2012,08,07,07,16,26.00
2012,08,07,07,17,27.00
2012,08,07,07,18,29.20
2012,08,07,07,19,30.00
2012,08,07,07,20,30.00
2012,08,07,07,21,30.60
2012,08,07,07,22,32.00
2012,08,07,07,23,31.00
2012,08,07,07,24,28.60
2012,08,07,07,25,26.40
2012,08,07,07,26,24.80
2012,08,07,07,27,23.00
2012,08,07,07,28,23.00
2012,08,07,07,29,24.10
2012,08,07,07,30,25.00
2012,08,07,07,31,23.30
2012,08,07,07,32,21.30
2012,08,07,07,33,23.90
2012,08,07,07,34,27.60
2012,08,07,07,35,33.00
2012,08,07,07,36,37.90
2012,08,07,07,37,39.90
2012,08,07,07,38,42.00
2012,08,07,07,39,42.00
2012,08,07,07,40,41.20
2012,08,07,07,41,39.40
2012,08,07,07,42,39.00
2012,08,07,07,43,38.90
2012,08,07,07,44,36.20
2012,08,07,07,45,33.70
2012,08,07,07,46,35.00
2012,08,07,07,47,35.00
2012,08,07,07,48,35.00
2012,08,07,07,49,35.00
2012,08,07,07,50,35.00
2012,08,07,07,51,35.60
2012,08,07,07,52,38.00
2012,08,07,07,53,39.60
2012,08,07,07,54,43.20
2012,08,07,07,55,46.20
2012,08,07,07,56,49.50
2012,08,07,07,57,51.70
2012,08,07,07,58,53.50
2012,08,07,07,59,54.00
2012,08,07,08,00,54.00
2012,08,07,08,01,54.00
2012,08,07,08,02,54.00
2012,08,07,08,03,54.00
2012,08,07,08,04,54.00
2012,08,07,08,05,54.00
2012,08,07,08,06,54.00
2012,08,07,08,07,53.00
2012,08,07,08,08,52.50
2012,08,07,08,09,51.80
2012,08,07,08,10,53.00
2012,08,07,08,11,51.60
2012,08,07,08,12,52.70
2012,08,07,08,13,54.30
2012,08,07,08,14,56.60
2012,08,07,08,15,59.70
2012,08,07,08,16,63.80
2012,08,07,08,17,65.00
2012,08,07,08,18,66.70
2012,08,07,08,19,66.70
2012,08,07,08,20,65.00
2012,08,07,08,21,64.20
2012,08,07,08,22,62.40
2012,08,07,08,23,62.00
2012,08,07,08,24,60.20
2012,08,07,08,25,62.20
2012,08,07,08,26,63.00
2012,08,07,08,27,63.00
2012,08,07,08,28,63.00
2012,08,07,08,29,64.50
2012,08,07,08,30,66.90
2012,08,07,08,31,68.60
2012,08,07,08,32,67.70
2012,08,07,08,33,69.00
2012,08,07,08,34,69.60
2012,08,07,08,35,70.00
2012,08,07,08,36,70.00
2012,08,07,08,37,70.00
2012,08,07,08,38,70.00
2012,08,07,08,39,71.00
2012,08,07,08,40,73.40
2012,08,07,08,41,72.40
2012,08,07,08,42,73.90
2012,08,07,08,43,74.00
2012,08,07,08,44,73.20
2012,08,07,08,45,72.00
2012,08,07,08,46,72.00
2012,08,07,08,47,70.30
2012,08,07,08,48,70.00
2012,08,07,08,49,70.00
2012,08,07,08,50,70.00
2012,08,07,08,51,70.00
2012,08,07,08,52,71.40
2012,08,07,08,53,73.70
2012,08,07,08,54,76.10
2012,08,07,08,55,77.60
2012,08,07,08,56,79.90
2012,08,07,08,57,81.00
2012,08,07,08,58,82.50
2012,08,07,08,59,83.80
2012,08,07,09,00,86.30
2012,08,07,09,01,88.60
2012,08,07,09,02,90.00
2012,08,07,09,03,90.60
2012,08,07,09,04,94.00
2012,08,07,09,05,96.80
2012,08,07,09,06,96.60
2012,08,07,09,07,95.00
2012,08,07,09,08,96.00
2012,08,07,09,09,97.00
2012,08,07,09,10,97.00
2012,08,07,09,11,98.20
2012,08,07,09,12,102.30
2012,08,07,09,13,104.30
2012,08,07,09,14,107.00
2012,08,07,09,15,110.30
2012,08,07,09,16,111.00
2012,08,07,09,17,112.90
2012,08,07,09,18,114.00
2012,08,07,09,19,114.00
2012,08,07,09,20,114.00
2012,08,07,09,21,114.00
2012,08,07,09,22,114.00
2012,08,07,09,23,114.20
2012,08,07,09,24,116.90
2012,08,07,09,25,121.20
2012,08,07,09,26,123.00
2012,08,07,09,27,123.00
2012,08,07,09,28,126.40
2012,08,07,09,29,127.10
2012,08,07,09,30,128.00
2012,08,07,09,31,128.00
2012,08,07,09,32,130.40
2012,08,07,09,33,133.40
2012,08,07,09,34,134.00
2012,08,07,09,35,132.00
2012,08,07,09,36,131.40
2012,08,07,09,37,130.00
2012,08,07,09,38,132.50
2012,08,07,09,39,134.70
2012,08,07,09,40,134.10
2012,08,07,09,41,135.00
2012,08,07,09,42,133.60
2012,08,07,09,43,122.40
2012,08,07,09,44,116.40
2012,08,07,09,45,124.80
2012,08,07,09,46,129.90
2012,08,07,09,47,138.30
2012,08,07,09,48,145.50
2012,08,07,09,49,148.00
2012,08,07,09,50,146.80
2012,08,07,09,51,144.50
2012,08,07,09,52,144.10
2012,08,07,09,53,146.70
2012,08,07,09,54,150.30
2012,08,07,09,55,153.00
2012,08,07,09,56,153.00
2012,08,07,09,57,153.00
2012,08,07,09,58,150.90
2012,08,07,09,59,148.80
2012,08,07,10,00,147.40
2012,08,07,10,01,146.00
2012,08,07,10,02,147.30
2012,08,07,10,03,150.50
2012,08,07,10,04,154.90
2012,08,07,10,05,155.80
2012,08,07,10,06,155.00
2012,08,07,10,07,155.50
2012,08,07,10,08,157.30
2012,08,07,10,09,159.60
2012,08,07,10,10,161.90
2012,08,07,10,11,162.00
2012,08,07,10,12,160.40
2012,08,07,10,13,156.90
2012,08,07,10,14,153.90
2012,08,07,10,15,151.30
2012,08,07,10,16,151.00
2012,08,07,10,17,151.50
2012,08,07,10,18,154.40
2012,08,07,10,19,158.50
2012,08,07,10,20,162.30
2012,08,07,10,21,166.40
2012,08,07,10,22,172.70
2012,08,07,10,23,177.00
2012,08,07,10,24,180.90
2012,08,07,10,25,184.80
2012,08,07,10,26,186.00
2012,08,07,10,27,187.80
2012,08,07,10,28,190.30
2012,08,07,10,29,192.00
2012,08,07,10,30,192.40
2012,08,07,10,31,195.50
2012,08,07,10,32,202.10
2012,08,07,10,33,206.90
2012,08,07,10,34,206.80
2012,08,07,10,35,205.40
2012,08,07,10,36,202.00
2012,08,07,10,37,199.40
2012,08,07,10,38,199.80
2012,08,07,10,39,200.00
2012,08,07,10,40,200.00
2012,08,07,10,41,201.60
2012,08,07,10,42,205.60
2012,08,07,10,43,207.00
2012,08,07,10,44,204.70
2012,08,07,10,45,199.70
2012,08,07,10,46,194.50
2012,08,07,10,47,191.80
2012,08,07,10,48,181.40
2012,08,07,10,49,157.40
2012,08,07,10,50,154.20
2012,08,07,10,51,163.00
2012,08,07,10,52,171.10
2012,08,07,10,53,177.20
2012,08,07,10,54,180.10
2012,08,07,10,55,179.60
2012,08,07,10,56,173.00
2012,08,07,10,57,166.00
2012,08,07,10,58,173.10
2012,08,07,10,59,179.00
2012,08,07,11,00,181.90
2012,08,07,11,01,174.30
2012,08,07,11,02,167.50
2012,08,07,11,03,169.00
2012,08,07,11,04,170.00
2012,08,07,11,05,172.00
2012,08,07,11,06,170.10
2012,08,07,11,07,169.00
2012,08,07,11,08,169.10
2012,08,07,11,09,171.20
2012,08,07,11,10,173.30
2012,08,07,11,11,177.40
2012,08,07,11,12,179.00
2012,08,07,11,13,178.20
2012,08,07,11,14,179.00
2012,08,07,11,15,181.80
2012,08,07,11,16,187.50
2012,08,07,11,17,196.40
2012,08,07,11,18,205.90
2012,08,07,11,19,212.10
2012,08,07,11,20,213.70
2012,08,07,11,21,211.00
2012,08,07,11,22,209.50
2012,08,07,11,23,204.40
2012,08,07,11,24,198.70
2012,08,07,11,25,195.40
2012,08,07,11,26,189.20
2012,08,07,11,27,177.70
2012,08,07,11,28,174.00
2012,08,07,11,29,172.80
2012,08,07,11,30,171.30
2012,08,07,11,33,225.70
2012,08,07,11,34,244.20
2012,08,07,11,35,255.00
2012,08,07,11,36,248.30
2012,08,07,11,37,249.10
2012,08,07,11,38,244.50
2012,08,07,11,39,230.00
2012,08,07,11,40,211.90
2012,08,07,11,41,216.90
2012,08,07,11,42,233.40
2012,08,07,11,43,232.70
2012,08,07,11,44,229.10
2012,08,07,11,45,227.90
2012,08,07,11,46,219.10
2012,08,07,11,47,215.20
2012,08,07,11,48,219.00
2012,08,07,11,49,224.80
2012,08,07,11,50,236.20
2012,08,07,11,51,239.20
2012,08,07,11,52,246.70
2012,08,07,11,53,256.00
2012,08,07,11,54,261.50
2012,08,07,11,55,256.00
2012,08,07,11,56,259.30
2012,08,07,11,57,265.80
2012,08,07,11,58,278.00
2012,08,07,11,59,295.40
2012,08,07,12,00,314.00
2012,08,07,12,01,333.80
2012,08,07,12,02,347.00
2012,08,07,12,03,350.00
2012,08,07,12,04,346.30
2012,08,07,12,05,344.90
2012,08,07,12,06,358.80
2012,08,07,12,07,369.10
2012,08,07,12,08,376.70
2012,08,07,12,09,390.10
2012,08,07,12,10,392.90
2012,08,07,12,11,368.30
2012,08,07,12,12,342.00
2012,08,07,12,13,367.60
2012,08,07,12,14,369.90
2012,08,07,12,15,365.70
2012,08,07,12,16,358.00
2012,08,07,12,17,353.00
2012,08,07,12,18,358.10
2012,08,07,12,19,353.00
2012,08,07,12,20,322.80
2012,08,07,12,21,302.00
2012,08,07,12,22,293.10
2012,08,07,12,23,275.00
2012,08,07,12,24,248.50
2012,08,07,12,25,251.60
2012,08,07,12,26,260.00
2012,08,07,12,27,264.00
2012,08,07,12,28,281.60
2012,08,07,12,29,299.50
2012,08,07,12,30,288.20
2012,08,07,12,31,269.30
2012,08,07,12,32,285.30
2012,08,07,12,33,304.40
2012,08,07,12,34,317.60
2012,08,07,12,35,319.10
2012,08,07,12,36,304.60
2012,08,07,12,37,309.00
2012,08,07,12,38,358.00
2012,08,07,12,39,394.00
2012,08,07,12,40,400.40
2012,08,07,12,41,427.80
2012,08,07,12,42,462.00
2012,08,07,12,43,491.00
2012,08,07,12,44,500.90
2012,08,07,12,45,518.50
2012,08,07,12,46,572.10
2012,08,07,12,47,592.00
2012,08,07,12,48,592.00
2012,08,07,12,49,569.80
2012,08,07,12,50,524.30
2012,08,07,12,51,581.10
2012,08,07,12,52,611.70
2012,08,07,12,53,666.30
2012,08,07,12,54,675.00
2012,08,07,12,55,788.40
2012,08,07,12,56,1068.80
2012,08,07,12,57,1065.00
2012,08,07,12,58,1176.30
2012,08,07,12,59,1200.60
2012,08,07,13,00,1167.00
2012,08,07,13,01,1167.00
2012,08,07,13,02,1167.00
2012,08,07,13,03,1167.00
2012,08,07,13,04,997.20
2012,08,07,13,05,918.00
2012,08,07,13,06,918.00
2012,08,07,13,07,800.90
2012,08,07,13,08,508.00
2012,08,07,13,09,581.80
2012,08,07,13,10,631.00
2012,08,07,13,11,508.40
2012,08,07,13,12,516.20
2012,08,07,13,13,581.90
2012,08,07,13,14,633.70
2012,08,07,13,15,652.00
2012,08,07,13,16,709.90
2012,08,07,13,17,760.10
2012,08,07,13,18,727.40
2012,08,07,13,19,742.00
2012,08,07,13,20,788.40
2012,08,07,13,21,840.00
2012,08,07,13,22,891.00
2012,08,07,13,23,883.40
2012,08,07,13,24,680.30
2012,08,07,13,25,683.80
2012,08,07,13,26,636.00
2012,08,07,13,27,671.40
2012,08,07,13,28,682.00
2012,08,07,13,29,709.40
2012,08,07,13,30,970.00
2012,08,07,13,31,985.60
2012,08,07,13,32,1009.00
2012,08,07,13,33,1009.00
2012,08,07,13,34,1009.00
2012,08,07,13,35,1003.50
2012,08,07,13,36,977.80
2012,08,07,13,37,988.70
2012,08,07,13,38,981.00
2012,08,07,13,39,981.00
2012,08,07,13,40,644.40
2012,08,07,13,41,585.00
2012,08,07,13,42,585.00
2012,08,07,13,43,629.50
2012,08,07,13,44,736.80
2012,08,07,13,45,780.00
2012,08,07,13,46,535.30
2012,08,07,13,47,508.60
2012,08,07,13,48,517.30
2012,08,07,13,49,451.90
2012,08,07,13,50,454.30
2012,08,07,13,51,477.00
2012,08,07,13,52,485.20
2012,08,07,13,53,661.00
2012,08,07,13,54,661.00
2012,08,07,13,55,647.70
2012,08,07,13,56,599.00
2012,08,07,13,57,578.00
2012,08,07,13,58,476.40
2012,08,07,13,59,450.80
2012,08,07,14,00,455.60
2012,08,07,14,01,486.00
2012,08,07,14,02,513.00
2012,08,07,14,03,645.80
2012,08,07,14,04,722.30
2012,08,07,14,05,662.50
2012,08,07,14,06,653.70
2012,08,07,14,07,711.50
2012,08,07,14,08,738.00
2012,08,07,14,09,738.00
2012,08,07,14,10,983.50
2012,08,07,14,11,1039.20
2012,08,07,14,12,970.70
2012,08,07,14,13,903.50
2012,08,07,14,14,878.50
2012,08,07,14,15,875.00
2012,08,07,14,16,875.00
2012,08,07,14,17,875.00
2012,08,07,14,18,875.00
2012,08,07,14,19,687.50
2012,08,07,14,20,499.50
2012,08,07,14,21,565.10
2012,08,07,14,22,552.70
2012,08,07,14,23,493.20
2012,08,07,14,24,551.70
2012,08,07,14,25,625.20
2012,08,07,14,26,645.90
2012,08,07,14,27,632.00
2012,08,07,14,28,667.40
2012,08,07,14,29,649.90
2012,08,07,14,30,611.30
2012,08,07,14,31,623.60
2012,08,07,14,32,670.50
2012,08,07,14,33,731.50
2012,08,07,14,34,719.60
2012,08,07,14,35,722.00
2012,08,07,14,36,760.60
2012,08,07,14,37,801.00
2012,08,07,14,38,784.20
2012,08,07,14,39,696.80
2012,08,07,14,40,722.00
2012,08,07,14,41,751.00
2012,08,07,14,42,749.00
2012,08,07,14,43,858.60
2012,08,07,14,44,926.00
2012,08,07,14,45,728.90
2012,08,07,14,46,766.80
2012,08,07,14,47,946.00
2012,08,07,14,48,946.00
2012,08,07,14,49,946.00
2012,08,07,14,50,711.40
2012,08,07,14,51,747.00
2012,08,07,14,52,837.00
2012,08,07,14,53,1095.00
2012,08,07,14,54,949.20
2012,08,07,14,55,830.00
2012,08,07,14,56,830.00
2012,08,07,14,57,796.00
2012,08,07,14,58,498.80
2012,08,07,14,59,527.00
2012,08,07,15,00,423.00
2012,08,07,15,01,343.60
2012,08,07,15,02,353.30
2012,08,07,15,03,371.70
2012,08,07,15,04,348.60
2012,08,07,15,05,407.20
2012,08,07,15,06,450.70
2012,08,07,15,07,472.80
2012,08,07,15,08,453.50
2012,08,07,15,09,399.20
2012,08,07,15,10,411.00
2012,08,07,15,11,396.10
2012,08,07,15,12,361.80
2012,08,07,15,13,367.10
2012,08,07,15,14,405.10
2012,08,07,15,15,459.40
2012,08,07,15,16,466.70
2012,08,07,15,17,441.90
2012,08,07,15,18,476.60
2012,08,07,15,19,467.80
2012,08,07,15,20,426.10
2012,08,07,15,21,383.60
2012,08,07,15,22,321.00
2012,08,07,15,23,280.50
2012,08,07,15,24,307.80
2012,08,07,15,25,339.50
2012,08,07,15,26,363.90
2012,08,07,15,27,349.20
2012,08,07,15,28,336.20
2012,08,07,15,29,348.00
2012,08,07,15,30,354.00
2012,08,07,15,31,347.40
2012,08,07,15,32,329.50
2012,08,07,15,33,317.30
2012,08,07,15,34,314.20
2012,08,07,15,35,304.20
2012,08,07,15,36,274.40
2012,08,07,15,37,262.40
2012,08,07,15,38,222.30
2012,08,07,15,39,208.80
2012,08,07,15,40,226.90
2012,08,07,15,41,255.00
2012,08,07,15,42,267.50
2012,08,07,15,43,269.00
2012,08,07,15,44,227.50
2012,08,07,15,45,205.10
2012,08,07,15,46,220.20
2012,08,07,15,47,251.80
2012,08,07,15,48,301.50
2012,08,07,15,49,327.50
2012,08,07,15,50,343.10
2012,08,07,15,51,352.90
2012,08,07,15,52,350.50
2012,08,07,15,53,330.50
2012,08,07,15,54,316.70
2012,08,07,15,55,313.60
2012,08,07,15,56,324.80
2012,08,07,15,57,337.60
2012,08,07,15,58,342.80
2012,08,07,15,59,345.00
2012,08,07,16,00,345.80
2012,08,07,16,01,345.90
2012,08,07,16,02,342.60
2012,08,07,16,03,342.40
2012,08,07,16,04,346.50
2012,08,07,16,05,346.20
2012,08,07,16,06,340.50
2012,08,07,16,07,332.00
2012,08,07,16,08,323.20
2012,08,07,16,09,316.90
2012,08,07,16,10,314.00
2012,08,07,16,11,310.30
2012,08,07,16,12,306.50
2012,08,07,16,13,296.60
2012,08,07,16,14,272.80
2012,08,07,16,15,283.60
2012,08,07,16,16,323.10
2012,08,07,16,17,324.10
2012,08,07,16,18,314.40
2012,08,07,16,19,313.80
2012,08,07,16,20,316.50
2012,08,07,16,21,321.40
2012,08,07,16,22,348.30
2012,08,07,16,23,372.00
2012,08,07,16,24,383.70
2012,08,07,16,25,387.30
2012,08,07,16,26,392.00
2012,08,07,16,27,400.60
2012,08,07,16,28,406.00
2012,08,07,16,29,401.00
2012,08,07,16,30,397.20
2012,08,07,16,31,439.00
2012,08,07,16,32,515.80
2012,08,07,16,33,525.50
2012,08,07,16,34,512.20
2012,08,07,16,35,447.10
2012,08,07,16,36,414.00
2012,08,07,16,37,361.60
2012,08,07,16,38,339.60
2012,08,07,16,39,333.10
2012,08,07,16,40,332.00
2012,08,07,16,41,336.50
2012,08,07,16,42,332.10
2012,08,07,16,43,321.20
2012,08,07,16,44,318.70
2012,08,07,16,45,321.00
2012,08,07,16,46,326.50
2012,08,07,16,47,341.60
2012,08,07,16,48,355.70
2012,08,07,16,49,353.20
2012,08,07,16,50,343.20
2012,08,07,16,51,327.00
2012,08,07,16,52,302.00
2012,08,07,16,53,281.20
2012,08,07,16,54,261.60
2012,08,07,16,55,246.90
2012,08,07,16,56,231.90
2012,08,07,16,57,221.10
2012,08,07,16,58,214.60
2012,08,07,16,59,215.50
2012,08,07,17,00,220.00
2012,08,07,17,01,217.20
2012,08,07,17,02,202.20
2012,08,07,17,03,183.60
2012,08,07,17,04,166.90
2012,08,07,17,05,158.80
2012,08,07,17,06,150.30
2012,08,07,17,07,142.00
2012,08,07,17,08,135.60
2012,08,07,17,09,134.00
2012,08,07,17,10,134.00
2012,08,07,17,11,138.60
2012,08,07,17,12,140.70
2012,08,07,17,13,137.80
2012,08,07,17,14,131.90
2012,08,07,17,15,124.90
2012,08,07,17,16,119.30
2012,08,07,17,17,114.30